User: anonymous   Login
Location: Unspecified
(51.3762°N, 0.0000°E)
Time: 09:46:32
(UTC+00:00)
Language:

SO-50 - Orbit

View from above orbital plane
View from above orbital plane
View from above satellite
View from above satellite

Ground track
Ground track

The orbit data is extracted from the following two-line orbital elements,

1 27607U 02058C   19198.75756807 -.00000052 +00000-0 +13618-4 0  9991
2 27607 064.5559 320.7308 0080336 250.9361 108.3028 14.75558864891190
Epoch (UTC): 17 July 2019 18:10:53
Eccentricity: 0.0080336
inclination: 64.5559°
perigee height: 587 km
apogee height: 700 km
right ascension of ascending node: 320.7308°
argument of perigee: 250.9361°
revolutions per day: 14.75558864
mean anomaly at epoch: 108.3028°
orbit number at epoch: 89119

The dashed part of the orbit path shows where the satellite is in the earth's shadow,  

DLR